Location: Unspecified
(0.0000°N, 0.0000°E)
Time: 19:13:39
(UTC+00:00)

A-11 Canister half - Pass Details

Date: 05 August 2021
Orbit: 1526 x 1683 km, 47.3° (Epoch: 26 September)

Event Time Altitude Azimuth Distance (km) Brightness Sun altitude
Rises 21:23:10 0° 273° (W) 4,711 12.2 -46.6°
Reaches altitude 10° 21:29:15 10° 244° (WSW) 3,704 11.3 -47.9°
Maximum altitude 21:32:13 12° 225° (SW) 3,559 11.0 -48.6°
Enters shadow 21:32:35 12° 222° (SW) 3,561 11.0 -48.7°
